Location: Krasnoyarskiy Pitomnik
(51.1333°N, 71.6167°E)
Time: 00:30:52
(UTC+00:00)

NOSS 2-2 (C) - Pass Details

Date: 03 June 2022
Orbit: 439 x 1763 km, 63.3° (Epoch: 02 June)

Event Time Altitude Azimuth Distance (km) Brightness Sun altitude
Rises 16:22:55 0° 316° (NW) 2,784 9.4 -7.7°
Reaches altitude 10° 16:24:57 10° 323° (NW) 2,009 8.0 -7.9°
Maximum altitude 16:29:20 47° 38° (NE) 1,014 4.8 -8.3°
Drops below altitude 10° 16:35:20 10° 112° (ESE) 2,750 6.4 -8.9°
Enters shadow 16:36:29 - 114° (ESE) 3,181 6.7 -9.0°
